Kuwait, Kuwait

9:03 AM +03 on April 24, 2017 (GMT +0300)
Kuwait International

Weather History for OKBK - February, 2013

Change the Weather History Date:

Sunday, February 3, 2013

  Actual Average Record
Temperature  
Mean Temperature 58 °F -  
Max Temperature 67 °F 70 °F 77 °F (2006)
Min Temperature 50 °F 49 °F 37 °F (2017)
Degree Days  
Heating Degree Days 6    
Growing Degree Days 8 (Base 50)    
Moisture  
Dew Point 39 °F    
Average Humidity 54    
Maximum Humidity 94    
Minimum Humidity 15    
Precipitation  
Precipitation 0.00 in 0.02 in - ()
Sea Level Pressure  
Sea Level Pressure 30.24 in    
Wind  
Wind Speed 10 mph ()    
Max Wind Speed 22 mph    
Max Gust Speed -    
Visibility 4.8 miles    
Events      
Averages and records for this station are not official NWS values.
T = Trace of Precipitation, MM = Missing Value Source: Averaged Metar Reports

Daily Weather History Graph

Daily Weather History Graph

Search for Another Location

Airport or City:

Trip Planner

Search our weather history database for the weather conditions in past years. The results will help you decide how hot, cold, wet, or windy it might be!

Date:

Astronomy

Feb. 03, 2013 Rise Set
Actual Time 6:35 AM +03 5:28 PM +03
Civil Twilight 6:11 AM +03 5:52 PM +03
Nautical Twilight 5:42 AM +03 6:21 PM +03
Astronomical Twilight 5:14 AM +03 6:49 PM +03
Moon No Moon Rise 10:50 AM +03 (2/3)
Length of Visible Light 11h 41m
Length of Day
10h 52m
Waning Gibbous, 52% of the Moon is Illuminated
Feb 3
Waning Gibbous
Feb 3
Last Quarter
Feb 10
New
Feb 17
First Quarter
Feb 25
Full

Hourly Weather History & Observations

Time (+03) Temp. Dew Point Humidity Pressure Visibility Wind Dir Wind Speed Gust Speed Precip Events Conditions
12:00 AM 51.8 °F 50.0 °F 94% 30.18 in 5.0 mi West 4.6 mph - N/A   Clear
1:00 AM 53.6 °F 50.0 °F 88% 30.18 in 3.1 mi West 5.8 mph - N/A   Clear
2:00 AM 51.8 °F 50.0 °F 94% 30.18 in 2.5 mi West 4.6 mph - N/A   Clear
3:00 AM 52 °F 51 °F 94% 30.20 in 2 mi NNW 3.5 mph - -   Mist
3:00 AM 51.8 °F 50.0 °F 94% 30.18 in 2.2 mi NNW 3.5 mph - N/A   Clear
4:00 AM 51.8 °F 46.4 °F 82% 30.18 in - NW 8.1 mph - N/A   Clear
5:00 AM 50.0 °F 44.6 °F 82% 30.21 in - WNW 5.8 mph - N/A   Clear
6:00 AM 50.0 °F 44.6 °F 82% 30.21 in - West 5.8 mph - N/A   Clear
7:00 AM 50.0 °F 44.6 °F 82% 30.24 in - West 3.5 mph - N/A   Clear
8:00 AM 53.6 °F 46.4 °F 77% 30.27 in - WNW 5.8 mph - N/A   Clear
9:00 AM 59 °F 46 °F 53% 30.30 in 12 mi NNW 10.4 mph - -  
9:00 AM 59.0 °F 46.4 °F 63% 30.30 in - NNW 11.5 mph - N/A   Clear
10:00 AM 62.6 °F 46.4 °F 55% 30.30 in - NNW 11.5 mph - N/A   Clear
11:00 AM 64.4 °F 46.4 °F 52% 30.27 in - NNW 17.3 mph - N/A   Clear
12:00 PM 64.4 °F 44.6 °F 49% 30.27 in - North 18.4 mph - N/A   Clear
1:00 PM 66.2 °F 33.8 °F 30% 30.24 in - North 20.7 mph - N/A   Clear
2:00 PM 66.2 °F 26.6 °F 23% 30.24 in - NNW 20.7 mph - N/A   Clear
3:00 PM 67 °F 30 °F 15% 30.25 in 6 mi NNW 20.7 mph - -  
3:00 PM 66.2 °F 30.2 °F 26% 30.24 in - NNW 20.7 mph - N/A   Clear
4:00 PM 66.2 °F 23.0 °F 19% 30.24 in - NNW 20.7 mph - N/A   Clear
5:00 PM 64.4 °F 26.6 °F 24% 30.24 in - NNW 20.7 mph - N/A   Clear
6:00 PM 62.6 °F 28.4 °F 27% 30.24 in 4.3 mi NNW 18.4 mph - N/A   Clear
7:00 PM 62.6 °F 30.2 °F 30% 30.27 in - NNW 20.7 mph - N/A   Clear
8:00 PM 60.8 °F 32.0 °F 34% 30.27 in - NNW 17.3 mph - N/A   Clear
9:00 PM 59 °F 33 °F 26% 30.30 in 6 mi NNW 19.6 mph - -  
9:00 PM 59.0 °F 33.8 °F 39% 30.27 in - NNW 19.6 mph - N/A   Clear
10:00 PM 57.2 °F 32.0 °F 38% 30.27 in - NNW 20.7 mph - N/A   Clear
11:00 PM 57.2 °F 33.8 °F 41% 30.27 in - North 21.9 mph - N/A   Clear